Sign In / Sign Up
 
 
Guiding Lights Regatta. Leg 1. 19/02 - 25/02



Race Date (UTC) # I place II place III place Track
Race2580 2018-02-21 20:48:07 8 fastimprove sandra ENJOY-M24
Race2579 2018-02-21 20:47:26 8 OKUCU1 Windwillow Bar-Bar Sailing
Race2578 2018-02-21 20:46:44 8 Guga Grael 2 Distraction tropical
Race2577 2018-02-21 20:46:16 8 Euristica2 STEX BORA RN
Race2576 2018-02-21 20:45:10 8 EugenioBa AMARIANI Courageous
Race2575 2018-02-21 20:44:09 8 La GattaGnuda Y.C. Tempio Pausania Schaumamoi
Race2574 2018-02-21 20:43:22 8 FUK U skyandsea Malvinas
Race2573 2018-02-21 20:42:51 8 GRE_9 Albarone ENJOY-M24
Race2572 2018-02-21 20:41:57 8 RAYO TRICK MUS307
Race2571 2018-02-21 20:40:43 8 Guga Grael 2 Leon1965 Distraction
Race2570 2018-02-21 20:40:17 8 ge614 Euristica2 STEX
Race2569 2018-02-21 20:39:40 8 EugenioBa AMARIANI ryker
Race2568 2018-02-21 20:38:51 8 user Schaumamoi Alb_YCBE
Race2567 2018-02-21 20:38:04 8 Only3to1 dumaron belle
Race2566 2018-02-21 20:37:41 8 marenostrum.it Lago26-Mike skyandsea
Race2565 2018-02-21 20:36:58 8 fastimprove La GattaGnuda Carlo
Race2564 2018-02-21 20:35:25 8 RAYO GRE_9 caribe
Race2563 2018-02-21 20:34:45 8 PRADA45 TRICK Guga Grael 2
Race2562 2018-02-21 20:34:06 8 No respect. EugenioBa STEX
Race2561 2018-02-21 20:33:24 8 jujù BORA RN Blue eyes
Race2560 2018-02-21 20:32:40 8 Rocinante 1183 ge614 Schaumamoi
Race2559 2018-02-21 20:32:06 8 POL-8 OKUCU1 Bar-Bar Sailing
Race2558 2018-02-21 20:31:32 8 sandra ahab007 Tigerloo34
Race2557 2018-02-21 20:30:33 8 AleRugbyLionsLi skyandsea Carlo
Race2556 2018-02-21 20:29:28 7 Orzaiolo NarieYachts Hihihihihi
Race2555 2018-02-21 20:28:44 8 La GattaGnuda Emik73 wanderlust
Race2554 2018-02-21 20:27:54 8 PRADA45 Albarone Diogo D
Race2553 2018-02-21 20:27:21 8 Rocinante 1183 TRICK ESP-888
Race2552 2018-02-21 20:27:01 8 ge614 Ganzuria Дядя Саша
Race2551 2018-02-21 20:26:19 8 Only3to1 BRA 48 SHARDANA SRD
Race2550 2018-02-21 20:25:49 8 Norman Tigerloo34 sandra
Race2549 2018-02-21 20:25:14 8 AleRugbyLionsLi skyandsea Tar-Bar Sailing
Race2548 2018-02-21 20:24:01 8 GRE_9 cricola Buda Boys
Race2547 2018-02-21 20:23:12 8 GOLORITZE Emik73 Hihihihihi
Race2546 2018-02-21 20:22:32 8 HotTuna! PRADA45 user
Race2545 2018-02-21 20:21:42 8 BORA RN Clerico Rocinante 1183
Race2544 2018-02-21 20:21:10 8 La GattaGnuda Siesta Ganzuria
Race2543 2018-02-21 20:20:43 8 Extreme Only3to1 TRICK
Race2542 2018-02-21 20:20:04 8 ge614 BRA 48 SHARDANA SRD
Race2541 2018-02-21 20:19:31 8 ryker Courageous sandra
Race2540 2018-02-21 20:17:46 8 Bar-Bar Sailing Tar-Bar Sailing skyandsea
Race2539 2018-02-21 20:16:47 8 user AleRugbyLionsLi Norman
Race2538 2018-02-21 20:16:09 8 Guga Grael 2 Clerico Rocinante 1183
Race2537 2018-02-21 20:15:01 3 Ganzuria Karma AMARIANI
Race2536 2018-02-21 20:14:47 8 sidjnc Only3to1 Albarone
Race2535 2018-02-21 20:14:05 8 ryker TRICK Capricorn
Race2534 2018-02-21 20:12:56 8 La GattaGnuda StoneAge Melges24 sandra
Race2533 2018-02-21 20:12:11 3 Buda Boys dew rif
Race2532 2018-02-21 20:11:26 8 Go Penelope ahab007
Race2531 2018-02-21 20:10:47 8 GRE_9 user Figlio di puttana
Race2530 2018-02-21 20:09:04 8 Pepe Pinto Rocinante 1183 k
Race2529 2018-02-21 20:08:40 8 Albarone JUHNKSHO Only3to1
Race2528 2018-02-21 20:07:53 8 SHARDANA SRD ryker BRA 48
Race2527 2018-02-21 20:06:38 8 Pangea TRICK sandra
Race2526 2018-02-21 20:05:11 8 ge614 ahab007 rif
Race2525 2018-02-21 20:03:45 8 Rocinante 1183 GRE_9 Emik73
Race2524 2018-02-21 20:02:32 5 BON fastimprove Autentic CAT
Race2523 2018-02-21 20:01:58 8 guillo k BORA RN
Race2522 2018-02-21 20:00:52 8 ryker sandra Dyango
Race2521 2018-02-21 19:59:54 8 ge614 Penelope ventomareiro
Race2520 2018-02-21 19:58:23 8 Clerico ahab007 STEX
Race2519 2018-02-21 19:56:38 8 BON dumaron Norman
Race2518 2018-02-21 19:55:41 8 GRE_9 SHARDANA SRD DJ1003
Race2517 2018-02-21 19:54:53 8 ryker BRA 48 Buda Boys
Race2516 2018-02-21 19:54:02 3 jonatan41 Hihihihihi VADNAI
Race2515 2018-02-21 19:52:33 8 Arg4226 luzie Sgnaffe
Race2514 2018-02-21 19:51:26 8 La GattaGnuda BRA77 MXR
Race2513 2018-02-21 19:49:57 8 SHARDANA SRD fastimprove Penelope
Race2512 2018-02-21 19:49:23 8 Buda Boys mongrel AleRugbyLionsLi
Race2511 2018-02-21 19:47:50 8 BRA 48 ahab007 rif
Race2510 2018-02-21 19:46:47 8 ge614 VADNAI jonatan41
Race2509 2018-02-21 19:45:54 8 Dragon La GattaGnuda Emik73
Race2508 2018-02-21 19:44:42 8 SHARDANA SRD Bea Marco
Race2507 2018-02-21 19:43:57 4 OCHKO penna Kueken3
Race2506 2018-02-21 19:42:38 8 fastimprove rif Penelope
Race2505 2018-02-21 19:41:51 8 SunSails sandra ahab007
Race2504 2018-02-21 19:40:12 7 Dragon La GattaGnuda TED
Race2503 2018-02-21 19:39:46 8 porcupine SHARDANA SRD ITA 1848
Race2502 2018-02-21 19:38:20 8 AMARIANI Emik73 Bea
Race2501 2018-02-21 19:37:07 8 Extreme borch Kueken4
Race2500 2018-02-21 19:36:16 8 AleRugbyLionsLi BeteNoir fastimprove
Race2499 2018-02-21 19:35:11 8 ge614 Aurora BON
Race2498 2018-02-21 19:34:09 8 Dragon La GattaGnuda NarieYachts
Race2497 2018-02-21 19:33:41 8 porcupine figufo Emik73
Race2496 2018-02-21 19:32:20 8 Siesta AMARIANI Bea
Race2495 2018-02-21 19:31:36 8 Distraction Marco Lazy
Race2494 2018-02-21 19:30:37 8 BeteNoir AleRugbyLionsLi bul93
Race2493 2018-02-21 19:30:10 8 Aurora ge614 Irbis
Race2492 2018-02-21 19:28:19 8 sissa21 ITA 1848 BON
Race2491 2018-02-21 19:27:25 8 Leon porcupine Dragon
Race2490 2018-02-21 19:25:22 8 Siesta AMARIANI PamperoMDQ
Race2489 2018-02-21 19:24:23 8 Matushka theJ AndyAut007
Race2488 2018-02-21 19:23:30 8 AleRugbyLionsLi bul93 TRICK
Race2487 2018-02-21 19:22:35 8 F.Montefusco BON StoneAge Melges24
Race2486 2018-02-21 19:20:56 8 figufo Cristian bRITAnnia
Race2485 2018-02-21 19:19:33 3 PamperoMDQ No brakes ace
Race2484 2018-02-21 19:18:20 8 porcupine Aurora Matushka
Race2483 2018-02-21 19:16:47 8 Widget 107 TRICK Jurmo67
Race2482 2018-02-21 19:15:12 8 figufo BON StoneAge Melges24
Race2481 2018-02-21 19:14:02 8 abc123 Cristian Savona Sail